EHI
0 0 0 0 0 0 0 0 0 0 0 0 0 0 1 2 2 3 4 2 1 0 1 3 3 3 3 3 2 1 0 0 0 0 0 0 0 0 0 0 0 0 0 0
0 0 0 0 0 0 0 0 0 0 0 0 0 0 1 1 1 1 2 1 0 1 2 3 3 3 3 3 2 1 0 0 0 0 0 0 0 0 0 0 0 0 0 0
0 0 0 0 0 0 0 0 0 0 0 0 0 0 1 1 0 0 0 0 0 1 2 3 3 3 3 3 2 1 0 0 0 0 0 0 0 0 0 0 0 0 0 0
0 0 0 0 0 0 0 0 0 0 0 0 0 0 1 1 0 0 0 0 0 1 2 3 3 3 3 3 1 0 0 0 0 0 0 0 0 0 0 0 0 0 0 0
0 0 0 0 0 0 0 0 0 0 0 0 0 0 0 0 0 0 0 0 0 0 1 3 3 3 3 2 1 0 0 0 0 0 0 0 1 1 0 0 0 0 0 0
0 0 0 0 0 0 0 0 0 0 0 0 0 0 0 0 0 0 0 0 0 0 1 2 3 3 3 2 1 0 0 0 0 0 0 0 1 2 1 1 1 0 0 0
0 0 0 0 0 0 0 0 0 0 0 0 0 0 1 1 1 1 0 0 0 0 1 2 3 3 3 2 1 0 0 0 0 0 0 0 1 2 3 2 2 1 0 0
0 0 0 0 0 0 0 0 0 0 0 0 1 1 2 2 2 1 0 0 0 0 0 2 3 3 2 1 0 0 0 0 0 0 0 0 1 2 3 3 3 1 0 0
0 0 0 0 0 0 0 0 0 0 0 0 1 2 2 2 1 1 0 0 0 0 1 2 3 3 1 0 0 0 0 0 0 0 0 0 0 1 1 2 2 1 0 0
0 0 0 0 0 0 0 0 0 0 0 0 1 1 1 1 0 0 0 0 0 0 1 2 3 2 1 0 0 0 0 0 0 0 0 0 0 0 0 1 1 1 0 0
0 0 0 0 0 0 0 0 0 0 0 0 0 0 0 0 0 0 0 0 0 0 1 2 2 1 0 0 0 0 0 0 0 0 0 0 0 0 0 0 0 0 0 0
0 0 0 0 0 0 0 0 0 0 0 0 0 0 0 0 0 0 0 0 0 0 0 1 1 0 0 0 0 0 0 0 0 0 0 0 0 0 0 0 0 0 0 0
0 0 0 0 0 0 0 0 0 0 0 0 0 0 0 0 0 0 0 0 0 0 0 0 0 0 0 0 0 0 0 0 0 0 0 0 0 0 0 0 0 0 0 0
0 0 0 0 0 0 0 0 0 0 0 0 0 0 0 0 0 0 0 0 0 0 0 0 0 0 0 0 0 0 0 0 0 0 0 0 0 0 0 0 0 0 0 0
0 0 0 0 0 0 0 0 0 0 0 1 1 0 0 0 0 0 0 0 0 0 0 0 0 0 0 0 0 0 0 0 0 0 0 0 0 0 0 0 0 0 0 0
0 0 0 0 0 0 0 0 0 0 1 2 2 1 0 0 0 0 0 0 0 0 0 0 0 0 0 0 0 0 0 0 0 0 0 0 0 0 0 0 0 0 0 0
0 0 0 0 0 0 0 0 0 0 1 2 2 1 0 0 0 0 0 0 0 0 0 0 0 0 0 0 0 0 0 0 0 0 0 0 0 0 0 0 0 0 0 0
0 0 0 0 0 0 0 0 0 0 1 1 1 0 0 0 0 0 0 0 0 0 0 0 0 0 0 0 0 0 0 0 0 0 0 0 0 0 0 0 0 0 0 0
0 0 0 0 0 0 0 0 0 0 0 0 0 0 0 0 0 0 0 0 0 0 0 0 0 0 0 0 0 0 0 0 0 0 0 0 0 0 0 0 0 0 0 0
0 0 0 0 0 0 0 0 0 0 0 0 0 0 0 0 0 0 0 0 0 0 0 0 0 0 0 0 0 0 0 0 0 0 0 0 0 0 0 0 0 0 0 0
0 0 0 0 0 0 0 0 0 0 0 0 0 0 0 0 0 0 0 0 0 0 0 0 0 0 0 0 0 0 0 0 0 0 0 0 0 0 0 0 0 0 0 0
0 0 0 0 0 0 0 0 0 0 0 0 0 1 0 0 0 0 0 0 0 0 0 0 0 0 0 0 0 0 0 0 0 0 0 0 0 0 0 0 0 0 0 0
0 0 0 0 0 0 0 0 0 0 0 0 0 0 0 0 0 0 0 0 0 0 0 0 0 0 0 0 0 0 0 0 0 0 0 0 0 0 0 0 0 0 0 0
0 0 0 0 0 0 0 0 0 0 0 0 0 0 0 0 0 0 0 0 0 0 0 0 0 0 0 0 0 0 0 0 0 0 0 0 0 0 0 0 0 0 0 0
0 0 0 0 0 0 0 0 0 0 0 0 0 0 0 0 0 0 0 0 0 0 0 0 0 0 0 0 0 0 0 0 0 0 0 0 0 0 0 0 0 0 0 0
0 0 0 0 0 0 0 0 0 0 0 0 0 0 0 0 0 0 0 0 0 0 0 0 0 0 0 0 0 0 0 0 0 0 0 0 0 0 0 0 0 0 0 0
0 0 0 0 0 0 0 0 0 0 0 0 0 0 0 0 0 0 0 0 0 0 0 0 0 0 0 0 0 0 0 0 0 0 0 0 0 0 0 0 0 0 0 0
Wind_Speed
5 5 4 5 7 5 5 6 7 8 8 8 7 5 5 4 4 4 4 6 7 7 7 6 7 7 7 6 6 7 7 7 6 6 5 5 4 4 4 4 5 5 5 4
4 5 4 6 8 7 8 7 7 6 8 6 4 3 2 4 5 6 6 6 7 7 7 7 7 7 6 6 6 7 7 6 6 6 6 5 5 4 4 4 4 5 5 5
4 5 3 7 7 8 6 6 7 8 9 3 3 5 6 6 6 7 7 6 7 8 8 8 7 7 8 7 6 7 7 6 6 7 6 5 5 5 5 4 4 4 4 4
2 1 6 8 5 5 5 5 6 5 4 6 6 5 5 6 7 7 7 7 7 7 7 6 6 6 6 6 6 6 6 6 6 7 6 5 5 5 5 4 4 4 4 4
2 3 6 6 3 2 3 5 3 4 4 4 2 0 2 4 6 8 8 7 7 7 6 6 6 6 6 6 6 6 6 6 6 7 7 6 6 5 4 5 4 4 4 4
3 3 6 6 5 2 1 4 4 2 4 4 3 2 4 4 4 4 5 5 6 6 5 6 6 6 7 6 6 7 7 7 6 6 7 7 7 5 4 5 4 4 3 3
4 4 7 6 4 2 2 6 4 2 2 3 4 5 5 3 3 3 3 4 5 6 6 6 6 7 7 7 7 6 6 6 6 6 6 6 5 4 5 5 5 4 4 2
4 4 8 3 1 2 6 3 2 1 1 1 1 1 2 3 3 2 3 4 5 6 6 5 7 8 7 7 6 5 6 6 6 5 5 5 5 4 5 6 5 4 3 2
7 7 5 3 3 3 2 2 2 1 1 2 1 1 1 2 3 3 4 4 4 5 6 5 6 8 9 7 6 6 6 6 6 5 4 5 6 6 5 5 4 4 4 3
2 5 4 3 2 2 2 3 3 2 2 2 2 2 2 2 3 3 4 4 4 5 5 5 6 6 7 7 7 8 7 6 5 5 4 4 4 5 5 5 5 4 4 4
4 5 4 4 3 3 3 2 1 2 2 3 3 3 4 3 4 4 4 4 4 5 5 6 6 6 6 7 8 8 7 6 5 5 5 4 3 3 4 4 6 7 6 5
6 6 4 7 6 4 3 2 3 2 2 2 3 4 3 3 3 4 4 4 4 4 4 4 5 5 5 6 8 8 6 6 5 4 4 4 4 2 1 2 4 6 6 6
7 5 5 7 6 4 3 4 3 3 3 2 2 3 4 3 3 3 4 4 5 5 4 4 5 5 5 6 8 8 8 7 5 5 5 5 4 5 3 1 2 3 5 6
5 3 5 5 6 5 4 3 2 1 2 3 3 3 3 3 3 4 4 5 4 4 4 4 5 4 5 6 7 7 7 7 6 5 5 5 5 4 4 5 3 1 2 5
6 5 7 6 6 5 3 2 2 1 2 2 2 3 4 4 4 4 4 3 4 4 3 4 5 4 4 6 7 7 6 5 5 4 4 4 4 4 4 4 4 3 2 2
6 5 4 5 5 4 3 3 3 4 4 3 3 4 4 5 4 4 3 4 5 5 4 5 5 4 5 5 6 5 5 7 6 5 5 4 4 4 4 4 4 4 4 4
4 5 5 5 5 5 5 5 5 5 4 4 5 4 4 3 3 3 3 4 5 5 4 5 5 4 5 6 6 5 4 6 7 5 5 5 5 5 5 4 4 4 3 4
6 7 7 6 5 5 5 4 4 4 5 5 4 4 4 5 5 5 4 3 3 2 2 4 5 5 5 6 5 4 4 4 5 5 5 5 5 5 5 5 5 4 3 3
3 4 4 5 4 4 4 4 4 4 4 4 4 5 5 5 5 5 4 4 4 4 3 3 6 6 6 6 6 4 5 5 4 4 4 6 5 4 4 5 4 4 4 4
2 3 3 2 2 2 3 3 3 3 3 4 4 3 3 3 4 5 5 5 5 4 4 4 5 5 5 6 7 4 5 5 5 5 5 5 5 5 5 5 5 4 4 4
2 2 2 2 2 2 2 3 3 3 3 4 5 5 4 4 4 4 5 4 4 3 4 6 5 4 5 6 7 5 5 5 5 5 5 5 5 5 5 5 5 5 4 4
2 2 2 2 1 2 2 2 3 4 3 3 4 4 4 3 3 3 4 5 4 5 4 3 4 6 7 7 5 5 5 5 5 5 5 5 5 5 5 5 5 4 4 4
2 2 2 2 2 2 2 1 2 3 4 4 4 4 5 4 4 4 4 3 3 5 4 4 6 9 10 6 5 5 5 6 5 5 5 5 5 5 5 5 4 4 4 4
2 1 1 2 1 1 2 2 2 2 2 3 4 5 5 3 2 3 3 4 5 5 3 5 8 9 9 5 5 5 5 5 5 5 5 5 4 4 4 5 4 4 4 5
1 1 1 1 1 2 2 2 1 1 1 1 2 2 3 3 3 3 2 3 4 4 3 5 8 8 5 4 5 5 5 5 5 5 5 5 5 5 5 5 5 4 4 4
1 1 1 2 2 2 1 1 1 1 1 1 1 1 1 1 2 2 2 2 4 4 3 3 4 5 4 4 4 5 4 5 5 5 5 5 5 5 5 5 5 4 4 4
1 1 1 1 2 1 1 1 1 1 1 1 1 0 1 2 2 2 2 2 2 3 3 3 3 3 4 4 4 4 4 4 4 4 5 5 5 5 5 6 5 4 4 4
Wind_Direction
230 237 233 248 258 249 224 208 209 238 239 245 237 229 230 204 175 162 166 174 179 181 180 175 175 176 174 177 175 168 161 163 172 172 165 156 154 155 150 149 149 143 135 134
267 262 259 259 254 245 239 233 233 243 256 249 223 205 208 194 172 173 182 188 188 184 179 177 176 176 172 174 174 166 163 169 167 158 154 153 152 142 136 139 140 136 138 140
260 276 306 266 238 227 232 229 214 230 238 221 209 198 197 197 192 191 190 188 190 188 186 182 179 174 176 177 169 162 162 163 162 159 156 157 151 139 139 144 140 136 143 139
219 282 239 248 237 212 224 248 234 224 220 198 206 215 210 196 193 200 196 190 189 189 186 180 172 168 170 165 161 159 159 161 164 159 155 150 147 149 146 140 140 143 147 149
163 217 269 283 264 198 211 266 259 212 216 208 187 95 274 220 199 200 198 191 187 185 180 171 167 165 157 158 159 158 165 167 166 160 157 156 159 161 152 142 141 143 146 147
162 190 238 255 284 301 119 266 290 209 192 201 149 154 247 229 202 198 190 183 178 168 160 163 170 159 154 160 162 170 175 173 165 161 161 167 168 160 149 145 147 143 139 151
186 217 255 265 293 46 161 246 284 232 187 188 196 211 222 204 198 188 165 169 168 159 164 173 166 156 160 164 177 180 168 159 157 161 164 164 157 151 145 141 138 140 139 147
170 206 250 277 75 176 230 267 281 243 192 161 214 218 193 169 166 164 151 154 164 162 166 167 163 162 167 180 179 157 153 154 155 157 162 155 152 150 148 144 143 145 139 136
190 215 243 235 208 241 234 246 254 232 240 161 159 198 207 189 179 174 157 155 159 163 161 164 169 169 174 182 161 150 149 155 156 155 156 156 159 157 152 152 154 161 160 167
240 262 264 265 271 278 262 245 247 231 207 178 188 189 207 199 194 180 162 162 155 150 160 172 175 174 177 168 159 156 157 160 157 154 152 152 158 160 158 162 164 168 171 173
251 275 300 289 270 256 281 282 276 298 265 215 190 195 188 182 196 188 170 170 160 158 172 182 176 174 170 161 156 157 160 162 159 159 160 156 155 162 169 181 182 176 180 177
239 239 229 261 270 262 253 248 232 236 279 263 206 187 183 187 191 175 168 166 162 164 172 178 172 173 172 167 163 160 160 161 161 159 159 155 149 122 75 148 172 178 174 172
243 255 247 264 273 261 240 240 234 212 202 230 231 187 175 183 178 159 154 163 175 180 181 176 171 174 177 171 167 168 168 168 163 163 163 161 161 160 153 79 99 149 171 174
265 279 285 279 269 260 244 240 227 204 222 207 202 176 168 164 161 159 168 179 180 174 170 170 170 183 182 170 168 169 167 166 165 171 170 169 171 171 168 164 164 179 180 176
267 255 249 262 266 257 232 195 167 192 208 206 184 174 170 166 175 182 183 169 155 159 168 167 173 186 174 168 167 167 166 168 166 163 163 164 164 160 163 167 167 166 148 155
270 277 268 253 244 246 228 203 197 206 203 204 195 190 190 186 184 179 174 161 159 176 183 181 189 187 166 162 162 163 167 166 161 160 158 159 162 161 162 162 166 171 176 176
240 261 268 261 246 245 236 223 207 204 203 204 200 192 183 170 167 175 185 183 181 188 184 184 187 172 161 160 159 162 161 165 160 159 166 168 167 168 168 167 172 177 187 179
232 239 240 232 227 230 234 227 209 202 203 205 191 179 179 179 185 192 193 177 164 167 192 190 172 160 161 162 160 158 158 164 171 173 170 169 169 170 168 170 173 173 172 164
265 264 259 245 231 218 215 213 206 206 203 186 178 186 193 193 191 188 180 168 172 193 220 197 169 162 166 170 161 160 160 163 165 166 165 162 163 168 170 172 173 174 169 162
275 282 280 275 265 233 213 212 203 206 201 188 179 180 189 196 188 179 174 185 201 204 196 181 173 174 174 172 163 163 166 169 171 170 167 168 172 175 175 174 172 173 175 175
269 269 266 266 269 263 230 205 192 198 197 182 181 189 196 200 189 179 177 204 226 195 180 177 178 181 177 170 164 165 167 169 173 174 174 175 175 174 176 176 175 177 179 178
265 267 270 271 274 275 266 231 202 194 189 190 189 189 186 193 193 191 200 206 200 182 182 188 186 182 175 165 165 166 168 170 172 171 173 175 177 179 179 178 179 179 177 176
268 269 271 274 270 270 279 264 221 200 193 196 197 198 198 199 192 187 213 220 185 184 188 197 187 175 169 164 166 169 171 172 174 176 178 179 180 179 178 176 177 174 172 173
296 311 295 300 334 324 304 285 270 239 207 203 208 206 198 195 213 218 199 184 183 183 192 187 179 173 167 168 169 172 175 175 175 175 174 172 172 172 173 173 173 174 173 171
296 307 316 330 291 263 260 271 291 291 222 227 232 224 210 195 193 196 176 172 172 175 179 180 177 173 170 168 172 175 177 178 174 169 169 169 171 173 174 173 174 173 173 175
306 294 268 252 246 251 255 255 246 229 186 214 273 251 192 157 153 155 154 166 174 174 172 172 171 169 170 171 172 172 172 173 174 173 172 171 171 172 173 173 173 174 177 178
334 337 337 332 318 295 272 244 230 230 204 177 193 236 160 140 137 142 146 157 171 168 165 165 163 159 159 164 165 165 166 167 167 167 169 170 171 173 175 175 176 174 175 177